Worthington, MN

8:13 PM CST on February 06, 2016 (GMT -0600)
Worthington Municipal

Weather History for KOTG - March, 2014

Change the Weather History Date:

Saturday, March 15, 2014

  Actual Average Record
Temperature  
Mean Temperature 27 °F -  
Max Temperature 30 °F 34 °F 71 °F (2012)
Min Temperature 24 °F 20 °F -7 °F (1993)
Degree Days  
Heating Degree Days 38    
Moisture  
Dew Point 20 °F    
Average Humidity 71    
Maximum Humidity 86    
Minimum Humidity 64    
Precipitation  
Precipitation 0.00 in - - ()
Sea Level Pressure  
Sea Level Pressure 30.11 in    
Wind  
Wind Speed 11 mph (NE)    
Max Wind Speed 18 mph    
Max Gust Speed -    
Visibility 8 miles    
Events      
Averages and records for this station are not official NWS values.
T = Trace of Precipitation, MM = Missing Value Source: NWS Daily Summary

Daily Weather History Graph

Daily Weather History Graph

Search for Another Location

Airport or City:

Trip Planner

Search our weather history database for the weather conditions in past years. The results will help you decide how hot, cold, wet, or windy it might be!

Date:

Astronomy

Mar. 15, 2014 Rise Set
Actual Time 7:34 AM CDT 7:28 PM CDT
Civil Twilight 7:05 AM CDT 7:57 PM CDT
Nautical Twilight 6:32 AM CDT 8:30 PM CDT
Astronomical Twilight 5:58 AM CDT 9:04 PM CDT
Moon 6:48 PM CDT (3/15) 6:48 AM CDT (3/15)
Length of Visible Light 12h 51m
Length of Day
11h 54m
Waxing Gibbous, 99% of the Moon is Illuminated
Mar 15
Waxing Gibbous
Mar 16
Full
Mar 23
Last Quarter
Mar 30
New
Apr 7
First Quarter

Hourly Weather History & Observations

Time (CDT) Temp. Windchill Dew Point Humidity Pressure Visibility Wind Dir Wind Speed Gust Speed Precip Events Conditions
12:15 AM 30.2 °F 21.9 °F 26.6 °F 86% 29.95 in 10.0 mi NE 9.2 mph - N/A   Clear
12:35 AM 30.2 °F 21.3 °F 24.8 °F 80% 29.95 in 10.0 mi NE 10.4 mph - N/A   Clear
12:55 AM 30.2 °F 21.9 °F 24.8 °F 80% 29.95 in 10.0 mi NE 9.2 mph - N/A   Clear
1:15 AM 30.2 °F 22.6 °F 24.8 °F 80% 29.95 in 10.0 mi NE 8.1 mph - N/A   Clear
1:35 AM 30.2 °F 23.4 °F 23.0 °F 75% 29.97 in 10.0 mi NE 6.9 mph - N/A   Scattered Clouds
1:55 AM 30.2 °F - 23.0 °F 75% 29.98 in 10.0 mi Calm Calm - N/A   Mostly Cloudy
2:15 AM 30.2 °F 25.4 °F 23.0 °F 75% 29.98 in 10.0 mi East 4.6 mph - N/A   Scattered Clouds
2:35 AM 30.2 °F 24.3 °F 21.2 °F 69% 29.98 in 10.0 mi ENE 5.8 mph - N/A   Partly Cloudy
2:55 AM 30.2 °F 23.4 °F 21.2 °F 69% 29.97 in 10.0 mi NE 6.9 mph - N/A   Clear
3:15 AM 30.2 °F 25.4 °F 21.2 °F 69% 29.98 in 10.0 mi NE 4.6 mph - N/A   Clear
3:35 AM 30.2 °F 24.3 °F 21.2 °F 69% 29.97 in 10.0 mi ENE 5.8 mph - N/A   Clear
3:55 AM 30.2 °F 23.4 °F 21.2 °F 69% 29.96 in 10.0 mi ENE 6.9 mph - N/A   Clear
4:15 AM 30.2 °F 23.4 °F 19.4 °F 64% 29.95 in 10.0 mi ENE 6.9 mph - N/A   Clear
4:35 AM 30.2 °F 21.3 °F 21.2 °F 69% 29.95 in 10.0 mi NE 10.4 mph - N/A   Clear
4:55 AM 30.2 °F 21.3 °F 19.4 °F 64% 29.95 in 10.0 mi NE 10.4 mph - N/A   Partly Cloudy
5:15 AM 30.2 °F 21.9 °F 19.4 °F 64% 29.96 in 10.0 mi ENE 9.2 mph - N/A   Partly Cloudy
5:35 AM 28.4 °F 19.1 °F 19.4 °F 69% 29.96 in 10.0 mi ENE 10.4 mph - N/A   Clear
5:55 AM 28.4 °F 18.0 °F 21.2 °F 74% 29.95 in 10.0 mi NE 12.7 mph - N/A   Clear
6:15 AM 28.4 °F 17.0 °F 21.2 °F 74% 29.95 in 10.0 mi NE 15.0 mph - N/A   Clear
6:35 AM 28.4 °F 18.5 °F 19.4 °F 69% 29.96 in 10.0 mi ENE 11.5 mph - N/A   Clear
6:55 AM 28.4 °F 18.5 °F 19.4 °F 69% 29.97 in 10.0 mi ENE 11.5 mph - N/A   Clear
7:15 AM 28.4 °F 18.5 °F 21.2 °F 74% 29.97 in 10.0 mi ENE 11.5 mph - N/A   Clear
7:35 AM 28.4 °F 18.0 °F 21.2 °F 74% 29.98 in 10.0 mi ENE 12.7 mph - N/A   Scattered Clouds
7:55 AM 28.4 °F 17.0 °F 21.2 °F 74% 29.99 in 10.0 mi ENE 15.0 mph - N/A   Overcast
8:15 AM 28.4 °F 18.0 °F 21.2 °F 74% 29.99 in 10.0 mi ENE 12.7 mph - N/A   Overcast
8:35 AM 28.4 °F 17.5 °F 19.4 °F 69% 30.00 in 10.0 mi East 13.8 mph - N/A   Mostly Cloudy
8:55 AM 28.4 °F 17.5 °F 19.4 °F 69% 30.01 in 10.0 mi ENE 13.8 mph - N/A   Mostly Cloudy
9:15 AM 28.4 °F 17.0 °F 19.4 °F 69% 30.02 in 10.0 mi ENE 15.0 mph - N/A   Overcast
9:35 AM 28.4 °F 18.0 °F 19.4 °F 69% 30.03 in 10.0 mi ENE 12.7 mph - N/A   Overcast
9:55 AM 28.4 °F 17.5 °F 19.4 °F 69% 30.04 in 10.0 mi ENE 13.8 mph - N/A   Overcast
10:15 AM 28.4 °F 17.0 °F 19.4 °F 69% 30.05 in 10.0 mi ENE 15.0 mph - N/A   Overcast
10:35 AM 28.4 °F 16.6 °F 19.4 °F 69% 30.06 in 10.0 mi ENE 16.1 mph - N/A   Overcast
10:55 AM 28.4 °F 17.0 °F 19.4 °F 69% 30.07 in 10.0 mi ENE 15.0 mph - N/A   Overcast
11:15 AM 28.4 °F 16.6 °F 19.4 °F 69% 30.07 in 10.0 mi ENE 16.1 mph - N/A   Mostly Cloudy
11:35 AM 28.4 °F 16.6 °F 19.4 °F 69% 30.08 in 3.0 mi ENE 16.1 mph - N/A   Mostly Cloudy
11:55 AM 28.4 °F 16.6 °F 21.2 °F 74% 30.08 in 1.8 mi ENE 16.1 mph - N/A   Overcast
12:15 PM 28.4 °F 17.5 °F 21.2 °F 74% 30.09 in 1.8 mi ENE 13.8 mph - N/A   Overcast
12:35 PM 28.4 °F 16.6 °F 23.0 °F 80% 30.10 in 1.5 mi NE 16.1 mph - N/A   Overcast
12:55 PM 28.4 °F 16.6 °F 23.0 °F 80% 30.10 in 1.2 mi NE 16.1 mph - N/A   Overcast
1:15 PM 28.4 °F 17.0 °F 23.0 °F 80% 30.11 in 1.2 mi NE 15.0 mph - N/A   Overcast
1:35 PM 28.4 °F 15.8 °F 21.2 °F 74% 30.12 in 1.2 mi NE 18.4 mph - N/A   Overcast
1:55 PM 26.6 °F 13.8 °F 21.2 °F 80% 30.13 in 1.2 mi NE 17.3 mph - N/A   Overcast
2:15 PM 26.6 °F 14.7 °F 21.2 °F 80% 30.14 in 1.2 mi NE 15.0 mph - N/A   Overcast
2:35 PM 26.6 °F 13.8 °F 19.4 °F 74% 30.14 in 3.0 mi NE 17.3 mph - N/A   Mostly Cloudy
2:55 PM 26.6 °F 13.8 °F 21.2 °F 80% 30.15 in 2.5 mi NE 17.3 mph - N/A   Mostly Cloudy
3:15 PM 26.6 °F 13.8 °F 19.4 °F 74% 30.15 in 2.5 mi NE 17.3 mph - N/A   Overcast
3:35 PM 26.6 °F 15.2 °F 19.4 °F 74% 30.16 in 1.5 mi NE 13.8 mph - N/A   Overcast
3:55 PM 26.6 °F 14.7 °F 19.4 °F 74% 30.17 in 1.8 mi NE 15.0 mph - N/A   Overcast
4:15 PM 26.6 °F 14.7 °F 19.4 °F 74% 30.18 in 2.0 mi NE 15.0 mph - N/A   Overcast
4:35 PM 26.6 °F 14.7 °F 19.4 °F 74% 30.18 in 3.0 mi NE 15.0 mph - N/A   Overcast
4:55 PM 26.6 °F 13.8 °F 19.4 °F 74% 30.19 in 4.0 mi NNE 17.3 mph - N/A   Overcast
5:15 PM 26.6 °F 14.3 °F 19.4 °F 74% 30.19 in 8.0 mi NE 16.1 mph - N/A   Overcast
5:35 PM 28.4 °F 16.2 °F 17.6 °F 64% 30.20 in 10.0 mi NNE 17.3 mph - N/A   Overcast
5:55 PM 28.4 °F 16.2 °F 17.6 °F 64% 30.21 in 10.0 mi NE 17.3 mph - N/A   Overcast
6:15 PM 26.6 °F 13.8 °F 17.6 °F 69% 30.22 in 10.0 mi NE 17.3 mph - N/A   Mostly Cloudy
6:35 PM 26.6 °F 14.3 °F 15.8 °F 64% 30.23 in 10.0 mi NNE 16.1 mph - N/A   Mostly Cloudy
6:55 PM 26.6 °F 14.3 °F 15.8 °F 64% 30.25 in 10.0 mi NNE 16.1 mph - N/A   Scattered Clouds
7:15 PM 26.6 °F 13.8 °F 17.6 °F 69% 30.26 in 10.0 mi NNE 17.3 mph - N/A   Mostly Cloudy
7:35 PM 26.6 °F 13.4 °F 17.6 °F 69% 30.26 in 10.0 mi NNE 18.4 mph - N/A   Overcast
7:55 PM 26.6 °F 15.7 °F 15.8 °F 64% 30.27 in 10.0 mi NNE 12.7 mph - N/A   Overcast
8:15 PM 26.6 °F 14.3 °F 15.8 °F 64% 30.28 in 10.0 mi NNE 16.1 mph - N/A   Overcast
8:35 PM 26.6 °F 14.3 °F 15.8 °F 64% 30.29 in 10.0 mi NNE 16.1 mph - N/A   Overcast
8:55 PM 26.6 °F 14.3 °F 15.8 °F 64% 30.30 in 10.0 mi NNE 16.1 mph - N/A   Scattered Clouds
9:15 PM 26.6 °F 13.8 °F 15.8 °F 64% 30.30 in 10.0 mi NNE 17.3 mph - N/A   Clear
9:35 PM 24.8 °F 11.9 °F 15.8 °F 69% 30.30 in 10.0 mi NNE 16.1 mph - N/A   Clear
9:55 PM 24.8 °F 12.9 °F 15.8 °F 69% 30.31 in 10.0 mi NNE 13.8 mph - N/A   Clear
10:15 PM 24.8 °F 12.9 °F 15.8 °F 69% 30.32 in 10.0 mi NNE 13.8 mph - N/A   Clear
10:35 PM 24.8 °F 13.4 °F 15.8 °F 69% 30.33 in 10.0 mi NNE 12.7 mph - N/A   Clear
10:55 PM 24.8 °F 14.0 °F 15.8 °F 69% 30.33 in 10.0 mi NNE 11.5 mph - N/A   Clear
11:15 PM 24.8 °F 12.9 °F 14.0 °F 64% 30.34 in 10.0 mi NNE 13.8 mph - N/A   Clear
11:35 PM 24.8 °F 14.0 °F 14.0 °F 64% 30.35 in 10.0 mi NE 11.5 mph - N/A   Clear
11:55 PM 24.8 °F 14.0 °F 14.0 °F 64% 30.35 in 10.0 mi NNE 11.5 mph - N/A   Clear